カタログに戻る

SCOUT X-1 R/B

運用中UNKNOWN
NORAD 82·ROCKET BODY·🇺🇸 United States

打ち上げ Feb 16, 1961 から Wallops Flight Facility

Loading…

次のパス (今後24時間)

TLE

最新Source: Space-Track

元期: Sep 14, 2026, 16:16 UTC

1 00082U 61004B   26257.67812662  .00000113  00000-0  12053-3 0  9990
2 00082  38.8645  27.3738 1166544 299.3202  49.5865 12.27940173 87806

AllMySatでSCOUT X-1 R/Bをリアルタイム追跡

Download on the App Store